| 
				
				
				
					
						
					 | 
				
				
				
					
					
					Asteroid 2013 AD53
					
					
					
					
						
					
					
						
							(Preview)
						
						
						
						
							
						
							
								Orbital elements:
2013 AD53                                                Earth MOID = 0.1397 AU
Epoch 2012 Sept. 30.0 TT = JDT 2456200.5                MPC
M 338.64265              (2000.0)            P               Q
n   0.51473577     Peri.  110.18841     +0.68443613     -0.69649043
a   1.5419838      Node   294.67656     +0.54842115     +0.68661570
e   0.3546434      Incl.   13.72004     +0.48039716     +0.20847052
P   1.91           H   23...                               
							 
							
						 
						
					
				 | 
				
					
						Blobrana
					 | 
				
				
					
						0
					 | 
				
				
				
					
						
					 | 
				
				
					
						
					 | 
				
			
		
			
			
				
				
					
						 
					 | 
				
				
				
					
						
					 | 
				
				
				
					
					
					Asteroid 2013 AB53
					
					
					
					
						
					
					
						
							(Preview)
						
						
						
						
							
						
							
								Orbital elements:
2013 AB53                                                Earth MOID = 0.2455 AU
Epoch 2012 Sept. 30.0 TT = JDT 2456200.5                MPC
M   1.43427              (2000.0)            P               Q
n   0.26533755     Peri.  228.55290     +0.83436204     -0.55065690
a   2.3984844      Node   164.80561     +0.52977106     +0.78863860
e   0.4878770      Incl.    5.43809     +0.15225834     +0.27354369
P   3.71           H   18.4           G... 
							 
							
						 
						
					
				 | 
				
					
						Blobrana
					 | 
				
				
					
						0
					 | 
				
				
				
					
						
					 | 
				
				
					
						
					 | 
				
			
		
			
			
				
				
					
						 
					 | 
				
				
				
					
						
					 | 
				
				
				
					
					
					Asteroid 2013 AA53
					
					
					
					
						
					
					
						
							(Preview)
						
						
						
						
							
						
							
								Orbital elements:
2013 AA53                                                Earth MOID = 0.3501 AU
Epoch 2012 Sept. 30.0 TT = JDT 2456200.5                MPC
M  25.82863              (2000.0)            P               Q
n   0.66856699     Peri.  196.32889     +0.38063872     +0.79554904
a   1.2953072      Node    98.14137     -0.78622263     +0.54677482
e   0.6754435      Incl.   28.43732     -0.48679373     -0.26103452
P   1.47           H   19.3... 
							 
							
						 
						
					
				 | 
				
					
						Blobrana
					 | 
				
				
					
						0
					 | 
				
				
				
					
						
					 | 
				
				
					
						
					 | 
				
			
		
			
			
				
				
					
						 
					 | 
				
				
				
					
						
					 | 
				
				
				
					
					
					Asteroid 2013 AZ52
					
					
					
					
						
					
					
						
							(Preview)
						
						
						
						
							
						
							
								Orbital elements:
2013 AZ52                                                Earth MOID = 0.2393 AU
Epoch 2012 Sept. 30.0 TT = JDT 2456200.5                MPC
M   6.53163              (2000.0)            P               Q
n   0.42617785     Peri.   16.70240     +0.80576257     +0.54428882
a   1.7488080      Node   307.97655     -0.57158406     +0.61150767
e   0.7568562      Incl.   17.22655     -0.15504302     +0.57428917
P   2.31           H   20.0           G... 
							 
							
						 
						
					
				 | 
				
					
						Blobrana
					 | 
				
				
					
						0
					 | 
				
				
				
					
						
					 | 
				
				
					
						
					 | 
				
			
		
			
			
				
				
					
						 
					 | 
				
				
				
					
						
					 | 
				
				
				
					
					
					Asteroid 2013 AY52
					
					
					
					
						
					
					
						
							(Preview)
						
						
						
						
							
						
							
								Orbital elements:
2013 AY52                                                Earth MOID = 0.0788 AU
Epoch 2012 Sept. 30.0 TT = JDT 2456200.5                MPC
M 350.09379              (2000.0)            P               Q
n   0.65623056     Peri.  251.89139     +0.94710211     -0.15723291
a   1.3114903      Node   116.34803     +0.23017702     +0.94028584
e   0.4719950      Incl.   18.19256     -0.22364286     +0.30189459
P   1.50           H   19... 
							 
							
						 
						
					
				 | 
				
					
						Blobrana
					 | 
				
				
					
						0
					 | 
				
				
				
					
						
					 | 
				
				
					
						
					 | 
				
			
		
			
			
				
				
					
						 
					 | 
				
				
				
					
						 
					 | 
				
				
				
					
					
					Asteroid 2013 AX52
					
					
					
					
						
					
					
						
							(Preview)
						
						
						
						
							
						
							
								Orbital elements:
2013 AX52                                           PHA, Earth MOID = 0.0384 AU
Epoch 2012 Sept. 30.0 TT = JDT 2456200.5                MPC
M 105.60202              (2000.0)            P               Q
n   0.74992240     Peri.  356.55488     +0.27938343     +0.81286233
a   1.1998450      Node   289.13078     -0.86751197     -0.01444569
e   0.1214105      Incl.   32.74848     -0.41154329     +0.58227670
P   1.3... 
							 
							
						 
						
					
				 | 
				
					
						Blobrana
					 | 
				
				
					
						0
					 | 
				
				
				
					
						
					 | 
				
				
					
						
					 | 
				
			
		
			
			
				
				
					
						 
					 | 
				
				
				
					
						
					 | 
				
				
				
					
					
					Asteroid 2012 YF8
					
					
					
					
						
					
					
						
							(Preview)
						
						
						
						
							
						
							
								Orbital elements:
2012 YF8                                                 Earth MOID = 0.0469 AU
Epoch 2012 Sept. 30.0 TT = JDT 2456200.5                MPC
M 299.97621              (2000.0)            P               Q
n   0.38421674     Peri.  143.76036     -0.94600551     +0.31948094
a   1.8739235      Node    54.96081     -0.31092186     -0.84650426
e   0.6319106      Incl.    3.83928     -0.09165792     -0.42586673
P   2.57           H   22.1           G... 
							 
							
						 
						
					
				 | 
				
					
						Blobrana
					 | 
				
				
					
						1
					 | 
				
				
				
					
						
					 | 
				
				
					
						
					 | 
				
			
		
			
			
				
				
					
						 
					 | 
				
				
				
					
						
					 | 
				
				
				
					
					
					Asteroid 2013 AC53
					
					
					
					
						
					
					
						
							(Preview)
						
						
						
						
							
						
							
								Orbital elements:
2013 AC53                                                Earth MOID = 0.0046 AU
Epoch 2012 Sept. 30.0 TT = JDT 2456200.5                MPC
M 320.86940              (2000.0)            P               Q
n   0.51706259     Peri.  341.67881     +0.20426180     -0.97827362
a   1.5373543      Node    96.52325     +0.90254266     +0.17417250
e   0.3789966      Incl.    2.04573     +0.37906974     +0.11244849
P   1.91           H   26.2... 
							 
							
						 
						
					
				 | 
				
					
						Blobrana
					 | 
				
				
					
						0
					 | 
				
				
				
					
						
					 | 
				
				
					
						
					 | 
				
			
		
			
			
				
				
					
						 
					 | 
				
				
				
					
						
					 | 
				
				
				
					
					
					Asteroid 2013 AE53
					
					
					
					
						
					
					
						
							(Preview)
						
						
						
						
							
						
							
								Orbital elements:
2013 AE53                                                Earth MOID = 0.0450 AU
Epoch 2012 Sept. 30.0 TT = JDT 2456200.5                MPC
M 310.01111              (2000.0)            P               Q
n   0.42929363     Peri.   18.96759     -0.57971333     -0.79401445
a   1.7403359      Node   106.86725     +0.72068791     -0.60441560
e   0.4166364      Incl.   11.02180     +0.38018600     -0.06498333
P   2.30           H   25....                                  
							 
							
						 
						
					
				 | 
				
					
						Blobrana
					 | 
				
				
					
						0
					 | 
				
				
				
					
						
					 | 
				
				
					
						
					 | 
				
			
		
			
			
				
				
					
						 
					 | 
				
				
				
					
						
					 | 
				
				
				
					
					
					Asteroid 2013 AD32
					
					
					
					
						
					
					
						
							(Preview)
						
						
						
						
							
						
							
								Orbital elements:
2013 AD32                                                Earth MOID = 0.0112 AU
Epoch 2012 Sept. 30.0 TT = JDT 2456200.5                MPC
M 342.78731              (2000.0)            P               Q
n   0.35778661     Peri.   37.96492     +0.82445975     -0.56591877
a   1.9651091      Node   356.50027     +0.51329235     +0.74885522
e   0.6000014      Incl.    1.34871     +0.23832138     +0.34489390
P   2.75           H   25.2... 
							 
							
						 
						
					
				 | 
				
					
						Blobrana
					 | 
				
				
					
						0
					 | 
				
				
				
					
						
					 | 
				
				
					
						
					 | 
				
			
		
			
			
				
				
					
						 
					 | 
				
				
				
					
						
					 | 
				
				
				
					
					
					Asteroid 2013 AA32
					
					
					
					
						
					
					
						
							(Preview)
						
						
						
						
							
						
							
								Orbital elements:
2013 AA32                                                Earth MOID = 0.1030 AU
Epoch 2012 Sept. 30.0 TT = JDT 2456200.5                MPC
M 349.53348              (2000.0)            P               Q
n   0.28226529     Peri.   20.62358     +0.93090816     -0.36525008
a   2.3016064      Node     0.80427     +0.31788415     +0.80809888
e   0.7445211      Incl.    6.29108     +0.17988789     +0.46213480
P   3.49           H   19.3           G   0... 
							 
							
						 
						
					
				 | 
				
					
						Blobrana
					 | 
				
				
					
						0
					 | 
				
				
				
					
						
					 | 
				
